When you browse on this site, cookies collect data to enhance your experience and personalize the content and advertising you see.
Visit our Privacy Policy to learn more. By continuing to use the site, you agree to this use of cookies and data.
  • In Germany
  • List of Countries
  • For 7 days
  • Water Temperature
  • Satellite Maps
  • Weather Map
  • Weather Widgets
  • user-avatar
    Login

    Hourly Weather La Massana

    Today, 19 March, Tuesday

    Time Temperature Precipitation Wind Pressure Humidity
    00:00 -6°C° 0 mm 3 mps 610 mmHg 82%
    01:00 -5°C° 0.2 mm 2 mps 610 mmHg 81%
    02:00 -5°C° 0.2 mm 2 mps 609 mmHg 81%
    03:00 -5°C° 0.2 mm 2 mps 609 mmHg 81%
    04:00 -5°C° 0.2 mm 2 mps 609 mmHg 82%
    05:00 -5°C° 0.2 mm 2 mps 609 mmHg 82%
    06:00 -5°C° 0.2 mm 2 mps 609 mmHg 83%
    07:00 -5°C° 0.2 mm 2 mps 609 mmHg 78%
    08:00 -5°C° 0.2 mm 3 mps 610 mmHg 74%
    09:00 -4°C° 0.2 mm 3 mps 610 mmHg 70%
    10:00 -2°C° 0.1 mm 3 mps 611 mmHg 67%
    11:00 -1°C° 0.1 mm 3 mps 611 mmHg 64%
    12:00 0°C° 0.1 mm 3 mps 611 mmHg 61%
    13:00 0°C° 0.1 mm 3 mps 611 mmHg 61%
    14:00 0°C° 0.1 mm 3 mps 611 mmHg 61%
    15:00 -1°C° 0.1 mm 3 mps 611 mmHg 61%
    16:00 -2°C° 0 mm 3 mps 611 mmHg 66%
    17:00 -4°C° 0 mm 3 mps 611 mmHg 72%
    18:00 -4°C° 0 mm 2 mps 610 mmHg 78%
    19:00 -4°C° 0.1 mm 2 mps 611 mmHg 80%
    20:00 -4°C° 0.1 mm 2 mps 611 mmHg 82%
    21:00 -5°C° 0.1 mm 3 mps 612 mmHg 84%
    22:00 -5°C° 0.2 mm 3 mps 612 mmHg 84%
    23:00 -5°C° 0.2 mm 3 mps 612 mmHg 84%

    Tomorrow, 20 March, Wednesday

    Time Temperature Precipitation Wind Pressure Humidity
    00:00 -5°C° 0.2 mm 3 mps 612 mmHg 85%
    01:00 -6°C° 0.1 mm 3 mps 612 mmHg 86%
    02:00 -6°C° 0.1 mm 3 mps 612 mmHg 87%
    03:00 -7°C° 0.1 mm 3 mps 612 mmHg 88%
    04:00 -6°C° 0 mm 2 mps 612 mmHg 88%
    05:00 -6°C° 0 mm 2 mps 612 mmHg 87%
    06:00 -7°C° 0 mm 2 mps 612 mmHg 87%
    07:00 -5°C° 0 mm 2 mps 612 mmHg 76%
    08:00 -4°C° 0 mm 3 mps 613 mmHg 64%
    09:00 -2°C° 0 mm 3 mps 614 mmHg 53%
    10:00 0°C° 0 mm 3 mps 615 mmHg 48%
    11:00 +1°C° 0 mm 3 mps 615 mmHg 44%
    12:00 +3°C° 0 mm 2 mps 616 mmHg 39%
    13:00 +3°C° 0 mm 2 mps 615 mmHg 42%
    14:00 +2°C° 0 mm 3 mps 615 mmHg 44%
    15:00 +2°C° 0 mm 3 mps 615 mmHg 46%
    16:00 +1°C° 0 mm 2 mps 614 mmHg 57%
    17:00 -2°C° 0 mm 2 mps 613 mmHg 67%
    18:00 -2°C° 0 mm 1 mps 612 mmHg 78%
    19:00 -3°C° 0 mm 1 mps 612 mmHg 80%
    20:00 -4°C° 0 mm 1 mps 613 mmHg 83%
    21:00 -4°C° 0 mm 1 mps 613 mmHg 85%
    22:00 -4°C° 0 mm 1 mps 613 mmHg 80%
    23:00 -4°C° 0 mm 1 mps 613 mmHg 74%

    Day after tomorrow, 21 March, Thursday

    Time Temperature Precipitation Wind Pressure Humidity
    00:00 -4°C° 0 mm 1 mps 613 mmHg 69%
    01:00 -4°C° 0 mm 1 mps 612 mmHg 68%
    02:00 -4°C° 0 mm 1 mps 612 mmHg 67%
    03:00 -4°C° 0 mm 1 mps 612 mmHg 67%
    04:00 -4°C° 0 mm 1 mps 612 mmHg 68%
    05:00 -4°C° 0 mm 1 mps 612 mmHg 69%
    06:00 -4°C° 0 mm 1 mps 613 mmHg 71%
    07:00 -1°C° 0 mm 1 mps 614 mmHg 61%
    08:00 +2°C° 0 mm 1 mps 616 mmHg 51%
    09:00 +4°C° 0 mm 0 mps 617 mmHg 41%
    10:00 +6°C° 0 mm 1 mps 617 mmHg 40%
    11:00 +7°C° 0 mm 1 mps 618 mmHg 40%
    12:00 +9°C° 0 mm 1 mps 618 mmHg 39%
    13:00 +9°C° 0 mm 1 mps 618 mmHg 41%
    14:00 +8°C° 0 mm 1 mps 617 mmHg 43%
    15:00 +8°C° 0 mm 1 mps 617 mmHg 44%
    16:00 +6°C° 0 mm 1 mps 615 mmHg 53%
    17:00 +4°C° 0 mm 1 mps 614 mmHg 61%
    18:00 0°C° 0 mm 0 mps 613 mmHg 69%
    19:00 +1°C° 0 mm 1 mps 614 mmHg 69%
    20:00 0°C° 0 mm 1 mps 614 mmHg 69%
    21:00 0°C° 0 mm 1 mps 614 mmHg 68%
    22:00 -1°C° 0 mm 1 mps 614 mmHg 66%
    23:00 -1°C° 0 mm 1 mps 614 mmHg 63%

    22 March, Friday

    Time Temperature Precipitation Wind Pressure Humidity
    00:00 -1°C° 0 mm 1 mps 614 mmHg 60%
    01:00 -1°C° 0 mm 1 mps 614 mmHg 58%
    02:00 -1°C° 0 mm 1 mps 614 mmHg 55%
    03:00 -1°C° 0 mm 1 mps 613 mmHg 53%
    04:00 -1°C° 0 mm 1 mps 613 mmHg 52%
    05:00 -1°C° 0 mm 1 mps 613 mmHg 51%
    06:00 -1°C° 0 mm 1 mps 613 mmHg 49%
    07:00 +2°C° 0 mm 1 mps 615 mmHg 45%
    08:00 +4°C° 0 mm 0 mps 616 mmHg 41%
    09:00 +7°C° 0 mm 0 mps 618 mmHg 37%
    10:00 +8°C° 0 mm 0 mps 618 mmHg 36%
    11:00 +10°C° 0 mm 1 mps 618 mmHg 34%
    12:00 +12°C° 0 mm 1 mps 619 mmHg 33%
    13:00 +11°C° 0 mm 1 mps 618 mmHg 35%
    14:00 +11°C° 0 mm 1 mps 618 mmHg 36%
    15:00 +11°C° 0 mm 1 mps 617 mmHg 38%
    16:00 +9°C° 0 mm 1 mps 616 mmHg 46%
    17:00 +7°C° 0 mm 1 mps 616 mmHg 54%
    18:00 +4°C° 0 mm 0 mps 615 mmHg 62%
    19:00 +3°C° 0 mm 0 mps 615 mmHg 64%
    20:00 +3°C° 0 mm 1 mps 615 mmHg 66%
    21:00 +2°C° 0 mm 1 mps 614 mmHg 68%
    22:00 +1°C° 0 mm 1 mps 614 mmHg 67%
    23:00 +1°C° 0 mm 1 mps 614 mmHg 66%

    23 March, Saturday

    Time Temperature Precipitation Wind Pressure Humidity
    00:00 +1°C° 0 mm 1 mps 614 mmHg 65%
    01:00 +1°C° 0 mm 1 mps 614 mmHg 64%
    02:00 +1°C° 0 mm 1 mps 613 mmHg 63%
    03:00 +1°C° 0 mm 1 mps 613 mmHg 62%
    04:00 +1°C° 0 mm 1 mps 613 mmHg 60%
    05:00 0°C° 0 mm 1 mps 613 mmHg 58%
    06:00 0°C° 0 mm 1 mps 613 mmHg 56%
    07:00 +3°C° 0 mm 1 mps 615 mmHg 48%
    08:00 +6°C° 0 mm 1 mps 616 mmHg 39%
    09:00 +9°C° 0 mm 1 mps 617 mmHg 31%
    10:00 +10°C° 0 mm 1 mps 617 mmHg 30%
    11:00 +11°C° 0 mm 1 mps 618 mmHg 28%
    12:00 +12°C° 0 mm 1 mps 618 mmHg 27%
    13:00 +12°C° 0 mm 1 mps 617 mmHg 28%
    14:00 +12°C° 0 mm 1 mps 617 mmHg 30%
    15:00 +10°C° 0 mm 2 mps 616 mmHg 31%
    16:00 +9°C° 0 mm 1 mps 615 mmHg 37%
    17:00 +7°C° 0 mm 1 mps 614 mmHg 44%
    18:00 +5°C° 0 mm 1 mps 613 mmHg 51%
    19:00 +4°C° 0 mm 1 mps 613 mmHg 53%
    20:00 +3°C° 0 mm 1 mps 613 mmHg 56%
    21:00 +2°C° 0 mm 1 mps 613 mmHg 58%
    22:00 +2°C° 0 mm 1 mps 613 mmHg 59%
    23:00 +2°C° 0 mm 1 mps 613 mmHg 59%

    24 March, Sunday

    Time Temperature Precipitation Wind Pressure Humidity
    00:00 +2°C° 0 mm 1 mps 613 mmHg 59%
    01:00 +2°C° 0 mm 1 mps 612 mmHg 59%
    02:00 +2°C° 0 mm 1 mps 612 mmHg 58%
    03:00 +2°C° 0 mm 1 mps 612 mmHg 58%
    04:00 +1°C° 0 mm 1 mps 612 mmHg 57%
    05:00 +1°C° 0 mm 1 mps 612 mmHg 57%
    06:00 +1°C° 0 mm 1 mps 612 mmHg 56%
    07:00 +4°C° 0 mm 1 mps 613 mmHg 50%
    08:00 +6°C° 0 mm 1 mps 614 mmHg 43%
    09:00 +9°C° 0 mm 1 mps 616 mmHg 37%
    10:00 +10°C° 0 mm 1 mps 616 mmHg 36%
    11:00 +11°C° 0 mm 1 mps 616 mmHg 36%
    12:00 +12°C° 0 mm 1 mps 616 mmHg 36%
    13:00 +11°C° 0 mm 1 mps 616 mmHg 39%
    14:00 +11°C° 0 mm 1 mps 615 mmHg 42%
    15:00 +10°C° 0 mm 1 mps 615 mmHg 45%
    16:00 +9°C° 0 mm 1 mps 614 mmHg 52%
    17:00 +7°C° 0 mm 1 mps 613 mmHg 59%
    18:00 +5°C° 0 mm 0 mps 613 mmHg 67%
    19:00 +4°C° 0 mm 0 mps 613 mmHg 71%
    20:00 +3°C° 0 mm 0 mps 612 mmHg 76%
    21:00 +2°C° 0 mm 0 mps 612 mmHg 80%
    22:00 +2°C° 0 mm 1 mps 612 mmHg 79%
    23:00 +2°C° 0 mm 1 mps 612 mmHg 79%
    Show more